Regional Weather Roundup
Issued by NWS

Home | Current Version | Previous Version | Graphics & Text | Print | Product List | Glossary Off
Versions: 1 2 3 4 5 6 7 8 9 10 11 12 13 14 15 16 17 18 19 20 21 22 23 24 25 26 27 28 29 30 31 32 33 34 35 36 37 38 39 40 41 42 43 44 45 46 47 48 49 50

000
ASUS43 KDMX 241903
RWRIA

WEATHER ROUNDUP FOR IOWA
NATIONAL WEATHER SERVICE DES MOINES IA
200 PM CDT SAT SEP 24 2016

NOTE: "FAIR" INDICATES FEW OR NO CLOUDS BELOW 12,000 FEET WITH NO
SIGNIFICANT WEATHER AND/OR OBSTRUCTIONS TO VISIBILITY.

* - THESE STATIONS ARE NOT NWS STATIONS...THUS NOT UNDER NWS
QUALITY CONTROL.  THEY ALSO DO NOT REPORT WEATHER SUCH
AS PRECIPITATION OR FOG.

IAZ001>003-012>014-020>022-031>034-043>046-242000-
   NORTHWEST IOWA

CITY           SKY/WX    TMP DP  RH WIND       PRES   REMARKS
CARROLL *      PTSUNNY   88  70  55 SE12G25   29.95F HX  92
CHEROKEE *     PTSUNNY   84  69  60 S15       29.91F HX  87
DENISON *      MOSUNNY   82  68  61 S10G17    29.91F HX  85
LE MARS *      MOSUNNY   86  70  58 S16G33    29.87F HX  90
ORANGE CITY *  MOSUNNY   84  68  58 S15G26    29.88F HX  87
SHELDON *      PTSUNNY   86  68  54 SE20G29   29.88F HX  89
SIOUX CITY     CLOUDY    85  70  60 S21G30    29.89F HX  89
SPENCER        PTSUNNY   85  68  56 SE26G33   29.93F HX  88
STORM LAKE *   CLOUDY    84  68  58 S20G25    29.94F HX  87
$$

IAZ055>058-069>071-079>083-090>094-242000-
   SOUTHWEST IOWA

CITY           SKY/WX    TMP DP  RH WIND       PRES   REMARKS
ATLANTIC *     MOSUNNY   88  68  51 S20G26    29.93F HX  91
AUDUBON *      MOSUNNY   88  70  55 SE16G22   29.96F HX  92
CLARINDA *       N/A     88  70  55 MISG      29.95F HX  92
COUNCIL BLFS * LGT RAIN  70  70 100 CALM      29.94F
CRESTON *      MOSUNNY   86  70  58 S18G26    30.00F HX  90
HARLAN  *      PTSUNNY   84  68  58 S15G22    29.95F HX  87
LAMONI         MOSUNNY   85  70  60 SE14G24   30.00F HX  89
RED OAK *      CLOUDY    88  70  55 SE15G24   29.92F HX  92
SHENANDOAH *   MOSUNNY   90  70  51 S17G26    29.92F HX  95
$$

IAZ047>049-059>061-072>074-084-242000-
   CENTRAL IOWA

CITY           SKY/WX    TMP DP  RH WIND       PRES   REMARKS
AMES           PTSUNNY   85  70  60 SE15      30.00F HX  89
ANKENY *         N/A    N/A N/A N/A MISG        N/A
BOONE *        MOSUNNY   86  68  54 S17       30.00F HX  89
CHARITON *       N/A     86  70  58 SE15      30.02F HX  90
DES MOINES     MOSUNNY   88  69  53 S18G30    29.98F HX  92
GRINNELL*      SUNNY     83  66  55 SE15      30.05F HX  86
KNOXVILLE *    MOSUNNY   88  66  48 S14G20    30.01F HX  90
MARSHALLTOWN   SUNNY     81  71  71 SE17      30.03F HX  85
NEWTON *       MOSUNNY   84  66  54 SE18      30.02F HX  86
PELLA *        SUNNY     87  64  45 SE10G17   30.03F HX  88
PERRY *        PTSUNNY   87  70  57 SE18      29.99F HX  92
$$

IAZ004>006-015-016-023>025-035-036-242000-
   NORTH CENTRAL IOWA

CITY           SKY/WX    TMP DP  RH WIND       PRES   REMARKS
ALGONA *       MOSUNNY   82  68  61 SE17G24   29.98F HX  85
CLARION *      SUNNY     84  68  58 SE16G24   30.01F HX  87
ESTHERVILLE    SUNNY     82  69  64 SE23G31   29.95F HX  85
FORT DODGE *   SUNNY     82  70  65 SE13G21   29.99F HX  86
FOREST CITY *    N/A     77  66  69 SE12G18   30.02F
WEBSTER CITY * SUNNY     84  68  58 SE17G25   29.98F HX  87
IOWA FALLS *     N/A     83  67  57 SE14G21   30.04F HX  85
$$

IAZ007>011-017>019-026>030-037>042-050>054-066-242000-
   NORTHEAST IOWA

CITY           SKY/WX    TMP DP  RH WIND       PRES   REMARKS
CEDAR RAPIDS   SUNNY     77  70  79 E10       30.09F
CHARLES CITY * PTSUNNY   72  68  88 SE10G18   30.08F
CLINTON *      CLOUDY    71  67  87 SE7       30.14F
DECORAH *      CLOUDY    66  66 100 VRB7G15   30.11F
DUBUQUE        CLOUDY    68  64  87 SE7       30.15F
MONTICELLO *   CLOUDY    72  66  83 E10       30.12F
OELWEIN *      MOSUNNY   75  68  78 SE15      30.10F
WATERLOO       SUNNY     77  67  71 SE15      30.05F
$$

IAZ064-065-067-068-078-242000-
   EAST CENTRAL IOWA

CITY           SKY/WX    TMP DP  RH WIND       PRES   REMARKS
DAVENPORT      CLOUDY    75  68  78 E8        30.13F HAZE
IOWA CITY      SUNNY     81  69  67 E9        30.09F HX  84
MT. PLEASANT * SUNNY     89  66  46 SE10G16   30.07F HX  91
MUSCATINE *    SUNNY     82  68  61 E8        30.09F HX  85
QUAD CITIES    MOSUNNY   79  69  71 E10       30.10F HX  81
$$

IAZ062-063-075>077-085>089-095>099-242000-
   SOUTHEAST IOWA

CITY           SKY/WX    TMP DP  RH WIND       PRES   REMARKS
BURLINGTON     SUNNY     74  68  81 SE6       30.07F
FAIRFIELD *    SUNNY     88  63  42 SE14      30.05F HX  88
FORT MADISON *   N/A     88  66  48 CALM      30.08F HX  90
KEOKUK *       MOSUNNY   88  64  45 VRB7G13   30.06F HX  89
OSKALOOSA *      N/A     86  65  48 S13G18    30.05F HX  88
CENTERVILLE *    N/A     86  68  54 SE8       30.06F HX  89
OTTUMWA        SUNNY     85  66  53 S13G21    30.05F HX  87
WASHINGTON *     N/A    N/A N/A N/A MISG        N/A
$$

ABBREVIATIONS USED IN REMARKS
   TC - TEMPERATURES IN CELSIUS
  WCI - WIND CHILL INDEX
   HX - HEAT INDEX
  VSB - VISIBILITY
$$




USA.gov is the U.S. government's official web portal to all federal, state and local government web resources and services.